Temp
71 70 70 72 74 75 74 73 68 63 67 74 74 78 78 76 72 72 71 63 55 52 52 54 55 56 56 57 58 59 60 61 61 62 62 63 63 63
69 69 70 71 73 74 74 73 71 67 64 72 74 77 79 79 75 72 72 61 56 52 50 50 52 53 54 55 55 56 57 58 59 60 61 61 62 62
62 65 67 69 67 68 69 69 69 69 63 69 74 76 74 74 75 75 74 73 71 55 52 50 49 50 51 52 52 53 54 55 56 57 58 60 60 61
61 61 64 67 65 68 68 68 69 70 64 61 70 72 71 73 73 72 73 73 71 65 53 51 50 49 48 49 49 49 50 51 52 54 55 56 58 59
61 62 62 63 63 63 63 63 66 67 65 62 61 69 68 70 67 68 69 70 73 62 56 51 49 49 48 48 48 48 48 48 49 49 50 51 53 55
62 62 63 63 62 63 63 63 64 63 62 60 60 60 63 65 64 61 62 67 68 72 65 59 59 53 48 49 48 48 47 47 47 47 47 47 47 49
61 62 63 60 54 56 61 62 62 61 61 61 60 60 60 61 60 64 61 63 66 67 67 70 71 71 69 51 53 48 47 46 46 47 47 46 45 46
60 62 62 55 54 48 47 46 52 59 60 60 60 58 60 59 60 59 59 58 56 65 65 65 70 69 70 71 59 50 48 46 46 46 46 46 45 45
62 62 61 63 50 55 51 47 45 43 44 55 56 58 59 60 59 58 58 58 58 62 61 58 64 65 69 70 55 52 48 47 46 45 45 44 44 43
64 57 55 54 45 47 55 59 60 61 59 53 51 52 53 53 53 54 53 54 56 59 60 54 60 59 63 66 55 53 51 47 47 46 45 44 43 43
49 47 50 48 38 40 53 52 52 53 49 45 44 43 43 43 44 49 51 51 51 54 59 54 56 57 59 60 65 54 49 48 47 47 46 45 44 43
49 47 38 41 38 39 51 53 50 51 52 55 56 54 52 51 46 52 50 45 45 45 54 47 48 50 48 57 60 62 63 52 47 46 46 45 45 48
51 51 48 38 38 40 40 47 45 44 49 54 54 53 54 53 53 53 52 49 45 45 52 49 46 47 47 47 51 54 56 55 57 56 46 44 45 45
52 52 49 39 39 39 44 38 37 38 52 50 48 47 46 47 49 50 50 50 51 50 53 51 45 45 43 42 42 48 50 53 54 54 55 53 43 43
52 43 39 39 42 38 38 39 40 50 48 44 43 42 44 46 46 46 47 48 48 49 51 49 46 46 44 41 41 42 41 44 47 49 47 48 42 43
40 51 43 39 38 42 48 49 50 48 45 43 42 43 44 42 41 42 41 42 40 41 46 46 45 44 38 38 38 36 36 34 40 41 42 36 36 36
40 54 52 51 50 50 49 47 47 46 44 43 42 42 41 41 40 41 40 39 37 36 38 42 44 43 41 34 31 32 33 34 34 35 34 31 32 32
49 49 47 47 47 46 45 43 43 42 43 42 42 41 39 38 38 39 40 40 38 38 38 38 39 38 39 33 32 30 33 32 33 33 33 30 29 31
48 47 46 46 46 45 42 41 40 41 43 41 40 40 39 39 38 38 38 40 39 38 38 38 35 34 32 29 33 32 32 33 33 32 32 31 29 29
47 45 44 44 44 42 41 38 38 40 40 40 40 39 38 37 38 38 39 38 38 38 37 37 34 32 31 29 29 31 31 29 31 32 32 32 32 31
44 44 44 43 43 41 41 40 41 43 42 40 39 38 37 38 37 38 38 37 36 36 34 33 34 33 35 36 30 28 30 31 30 29 31 31 29 28
43 43 43 43 42 41 42 42 42 43 43 43 42 40 40 40 38 37 37 37 38 37 35 35 36 37 34 32 28 28 28 30 31 30 30 30 30 26
43 43 41 41 41 42 42 41 42 41 42 42 42 42 36 41 43 42 40 37 37 36 37 36 37 37 34 32 30 29 29 29 29 28 28 30 30 30
MSLP
1020.83 1021.12 1021.29 1021.33 1021.41 1021.30 1021.22 1021.11 1021.00 1020.48 1019.60 1019.35 1019.12 1018.88 1019.18 1019.42 1019.50 1019.77 1019.73 1019.52 1019.88 1020.19 1020.29 1020.19 1020.24 1020.33 1020.37 1020.50 1020.51 1020.53 1020.50 1020.54 1020.67 1020.74 1020.79 1020.91 1021.01 1021.17
1020.14 1020.30 1020.62 1020.76 1020.75 1020.75 1020.71 1020.64 1020.54 1020.36 1019.50 1019.24 1018.64 1018.59 1018.32 1018.22 1018.25 1018.63 1018.54 1018.70 1018.80 1019.04 1019.23 1019.43 1019.24 1019.13 1019.12 1018.96 1019.03 1019.20 1019.20 1019.16 1019.16 1019.36 1019.43 1019.43 1019.44 1019.62
1018.78 1020.07 1020.08 1020.21 1020.34 1020.32 1020.31 1020.15 1019.92 1019.85 1019.51 1018.42 1018.52 1018.15 1017.99 1018.06 1017.97 1017.91 1017.65 1017.72 1017.59 1017.62 1017.67 1017.69 1017.78 1017.85 1018.09 1018.26 1018.23 1018.26 1018.30 1018.38 1018.26 1018.12 1018.09 1018.12 1018.31 1018.35
1019.77 1019.79 1019.52 1019.82 1019.85 1019.83 1019.83 1019.65 1019.43 1019.25 1019.23 1018.62 1018.20 1017.83 1017.70 1017.54 1017.35 1017.23 1017.10 1017.07 1016.72 1016.18 1016.28 1016.13 1016.17 1016.17 1016.44 1016.70 1016.96 1017.06 1016.89 1016.86 1016.83 1016.84 1016.92 1017.05 1016.96 1017.03
1019.17 1019.33 1019.21 1019.53 1019.54 1019.38 1019.37 1018.73 1018.86 1018.75 1018.77 1018.54 1018.05 1017.83 1017.69 1017.46 1017.21 1016.94 1016.63 1016.18 1015.89 1015.59 1015.39 1015.17 1015.15 1015.20 1015.07 1015.25 1015.38 1015.23 1015.20 1015.14 1015.34 1015.23 1015.31 1015.33 1015.44 1015.54
1018.75 1018.95 1019.06 1019.03 1019.06 1018.99 1018.87 1018.50 1018.53 1018.72 1018.69 1018.57 1018.04 1017.77 1017.58 1017.20 1017.17 1016.87 1016.21 1015.62 1015.13 1014.70 1014.20 1013.85 1013.42 1013.36 1013.42 1013.17 1013.50 1013.73 1013.82 1013.81 1013.99 1013.99 1013.90 1013.87 1013.92 1014.05
1018.20 1018.58 1018.66 1018.63 1018.69 1018.61 1018.76 1018.64 1018.45 1018.41 1018.34 1017.97 1017.55 1017.32 1017.07 1016.98 1016.71 1016.16 1015.47 1015.08 1014.14 1014.14 1013.30 1012.80 1012.16 1011.65 1011.52 1011.78 1011.78 1012.03 1012.27 1012.50 1012.50 1012.48 1012.36 1012.31 1012.35 1012.31
1017.88 1017.91 1018.09 1018.20 1018.21 1018.29 1018.40 1018.34 1018.34 1018.21 1017.89 1017.40 1016.79 1016.59 1016.59 1016.39 1016.19 1015.75 1015.07 1014.68 1013.25 1013.47 1012.51 1011.42 1011.43 1010.58 1010.17 1009.86 1009.59 1009.91 1010.03 1010.29 1010.56 1010.65 1010.71 1010.81 1010.93 1011.00
1017.72 1017.80 1017.92 1018.09 1018.49 1018.51 1018.36 1018.22 1017.92 1017.71 1017.71 1017.51 1017.18 1016.76 1016.42 1016.20 1015.98 1015.42 1014.77 1013.96 1012.76 1012.12 1011.94 1010.53 1010.66 1009.65 1009.36 1008.75 1008.71 1008.61 1008.49 1008.49 1008.61 1008.72 1008.87 1008.98 1009.15 1009.29
1017.48 1018.02 1018.36 1018.82 1019.42 1019.15 1018.43 1017.94 1017.75 1017.51 1017.63 1017.85 1017.89 1017.80 1017.56 1017.21 1016.70 1016.17 1015.50 1014.64 1013.25 1012.13 1011.83 1010.27 1009.89 1008.99 1008.66 1007.80 1007.39 1007.22 1007.08 1007.04 1007.08 1007.09 1007.24 1007.22 1007.28 1007.46
1018.53 1019.06 1019.40 1019.72 1019.90 1019.51 1018.67 1018.35 1018.09 1017.77 1017.80 1017.82 1017.72 1017.42 1017.02 1016.63 1016.44 1015.99 1015.30 1014.42 1012.96 1011.72 1011.25 1010.67 1009.25 1008.56 1007.77 1006.54 1006.17 1005.80 1005.64 1005.38 1005.41 1005.49 1005.30 1005.54 1005.78 1005.94
1018.91 1019.56 1020.27 1020.48 1020.22 1019.87 1019.27 1018.59 1018.43 1018.10 1017.91 1017.18 1016.67 1016.50 1016.41 1016.40 1016.38 1016.20 1015.92 1015.37 1014.39 1012.32 1011.52 1011.83 1010.55 1010.14 1007.76 1006.90 1005.60 1005.07 1004.44 1004.26 1004.12 1004.08 1004.18 1004.12 1004.29 1004.85
1019.30 1019.65 1020.47 1020.60 1020.45 1020.26 1019.88 1019.69 1019.45 1018.98 1017.86 1017.54 1017.30 1017.26 1017.10 1016.89 1016.44 1016.24 1016.13 1015.63 1014.69 1013.45 1012.39 1012.40 1010.84 1010.01 1009.24 1007.19 1005.93 1005.69 1005.15 1004.51 1003.88 1003.27 1002.96 1002.70 1002.80 1003.16
1019.70 1020.32 1020.75 1020.66 1020.50 1020.52 1020.23 1019.92 1019.43 1018.90 1018.47 1018.13 1018.00 1017.91 1017.91 1017.73 1017.20 1016.64 1016.10 1015.58 1014.89 1013.90 1012.51 1012.17 1010.99 1010.28 1009.30 1007.92 1006.84 1005.44 1005.37 1004.50 1003.70 1002.79 1002.16 1001.55 1001.40 1001.53
1020.49 1020.82 1020.55 1020.49 1020.23 1020.41 1020.24 1020.08 1019.35 1019.27 1019.22 1019.08 1019.05 1018.80 1018.93 1017.88 1017.67 1017.02 1016.13 1015.50 1014.77 1014.03 1013.25 1012.41 1011.46 1010.28 1009.42 1008.19 1007.02 1005.88 1005.37 1004.62 1004.36 1003.31 1002.92 1002.41 1002.17 1001.75
1020.77 1020.44 1020.69 1020.57 1020.38 1020.37 1020.08 1020.01 1020.07 1019.86 1019.70 1019.66 1019.31 1019.20 1018.36 1018.24 1018.04 1017.29 1016.15 1015.44 1014.63 1013.76 1013.42 1012.62 1011.83 1010.79 1009.77 1009.03 1008.19 1006.89 1006.38 1005.54 1004.46 1003.93 1003.33 1003.38 1003.15 1002.63
1021.16 1020.43 1020.54 1020.44 1020.29 1020.37 1020.56 1020.64 1020.47 1020.40 1020.18 1020.03 1019.31 1019.04 1018.93 1018.62 1018.13 1017.51 1016.78 1016.06 1015.24 1014.02 1012.89 1012.22 1011.72 1010.91 1010.04 1010.17 1009.25 1008.47 1006.87 1006.01 1005.39 1004.54 1004.01 1003.79 1003.71 1003.43
1021.08 1020.89 1020.94 1020.89 1020.84 1020.85 1020.87 1021.01 1020.84 1020.55 1020.36 1020.09 1019.84 1019.45 1019.24 1019.02 1018.53 1017.71 1017.14 1016.26 1015.28 1014.33 1013.47 1012.86 1011.95 1010.68 1009.95 1010.43 1010.83 1009.27 1007.91 1007.21 1006.64 1005.69 1005.10 1004.59 1004.70 1004.91
1021.48 1021.31 1021.27 1021.26 1021.27 1021.40 1021.49 1021.44 1021.37 1021.27 1020.92 1020.56 1020.15 1019.82 1019.53 1019.05 1018.57 1017.74 1017.08 1016.55 1015.85 1015.01 1014.23 1013.66 1013.04 1012.14 1011.35 1011.17 1011.27 1010.63 1009.11 1008.53 1007.94 1006.94 1006.57 1006.29 1006.45 1006.71
1021.85 1021.81 1021.86 1021.84 1021.73 1021.81 1021.89 1022.07 1021.99 1021.48 1021.07 1020.71 1020.33 1020.08 1019.77 1019.29 1018.62 1018.05 1017.42 1016.81 1016.27 1015.76 1014.94 1014.44 1014.09 1013.38 1012.77 1012.50 1012.05 1011.90 1011.10 1010.18 1009.30 1008.76 1008.48 1008.05 1007.97 1007.97
1022.26 1022.17 1022.18 1022.10 1022.02 1022.12 1022.10 1021.93 1021.58 1020.97 1020.62 1020.50 1020.41 1020.21 1019.83 1019.38 1018.73 1018.31 1017.84 1017.22 1016.67 1016.28 1015.82 1015.38 1015.06 1014.68 1014.03 1013.31 1012.65 1012.42 1012.32 1011.83 1011.32 1010.49 1009.91 1009.31 1008.95 1009.15
1022.44 1022.29 1022.20 1022.19 1022.18 1022.17 1021.90 1021.66 1021.27 1020.86 1020.54 1020.23 1019.97 1019.86 1019.59 1019.15 1018.70 1018.38 1018.03 1017.46 1016.98 1016.59 1016.14 1015.99 1015.57 1014.94 1014.39 1013.99 1013.86 1013.67 1013.31 1012.95 1012.43 1011.92 1011.24 1010.58 1010.18 1010.40
1022.18 1022.16 1022.26 1022.25 1022.13 1021.94 1021.78 1021.53 1021.20 1020.88 1020.53 1020.20 1019.89 1019.43 1019.21 1018.65 1018.13 1017.88 1017.70 1017.46 1017.07 1016.59 1016.11 1015.64 1015.48 1015.25 1014.92 1014.58 1014.42 1014.28 1013.93 1013.66 1013.43 1012.87 1012.60 1012.53 1012.12 1011.84
Wind_Speed
13 13 11 9 9 9 9 9 9 11 11 9 9 10 9 10 11 12 14 16 16 18 21 24 25 26 27 28 30 30 30 30 30 29 29 28 28 28
10 12 12 10 12 10 10 10 9 10 14 10 9 10 9 9 9 13 15 13 13 16 18 21 23 25 28 29 30 30 31 31 31 31 31 31 31 31
8 11 13 13 9 9 9 9 9 10 11 12 11 11 12 11 12 11 11 11 11 19 21 23 24 25 26 27 27 27 28 29 30 31 32 32 32 33
10 11 14 8 10 11 10 13 11 12 11 14 13 11 12 12 13 13 10 11 13 14 17 21 23 23 25 26 26 26 26 28 29 31 30 31 32 33
12 12 11 11 11 11 10 11 11 10 11 11 9 10 11 9 12 9 12 12 11 15 17 16 18 21 23 24 25 28 29 30 29 30 30 31 32 32
10 10 11 13 14 14 12 11 9 9 9 9 8 8 10 11 10 10 11 11 12 13 14 17 18 19 24 26 26 26 27 27 28 29 29 29 30 31
12 11 12 11 13 12 8 9 8 7 8 10 10 9 9 10 12 11 12 11 13 12 13 13 12 12 12 19 21 25 26 27 28 29 29 29 30 31
3 5 5 8 10 14 15 15 13 12 14 11 9 10 12 9 10 10 11 12 13 8 14 13 12 12 12 12 13 22 24 28 28 28 29 29 29 30
6 6 5 2 9 7 8 9 11 15 15 13 14 12 14 12 12 13 14 13 14 12 12 15 10 16 13 13 17 18 21 24 27 27 28 28 29 29
5 10 9 9 11 10 8 8 9 9 9 5 6 8 11 12 10 12 13 14 13 12 10 15 11 13 11 13 18 21 21 21 24 26 26 27 27 28
11 12 9 9 10 12 7 7 8 7 9 10 11 14 12 12 10 6 9 10 12 14 11 11 13 15 14 15 14 18 21 22 23 26 28 27 26 27
9 9 15 10 9 12 11 9 9 11 13 14 12 11 11 12 13 11 9 10 10 10 6 10 12 13 10 12 13 14 13 18 21 22 24 25 25 14
4 4 6 8 7 9 8 8 7 9 9 9 9 9 11 11 9 10 11 10 12 13 13 11 9 12 9 12 10 12 11 12 13 14 20 25 25 21
6 5 5 6 1 2 6 8 10 7 8 8 9 9 10 10 11 12 13 12 12 15 17 15 11 11 11 13 15 10 12 13 10 12 12 13 21 26
5 2 5 7 7 6 1 7 7 8 7 7 8 8 9 10 12 11 12 15 15 16 14 16 13 13 12 12 13 13 12 9 10 9 12 13 5 5
3 3 2 3 2 3 6 8 8 8 8 8 8 8 9 9 9 11 11 10 12 11 14 12 14 14 13 11 11 12 8 7 8 9 8 7 8 8
9 4 5 5 6 6 6 7 7 8 8 8 8 9 9 10 11 10 10 10 9 11 12 10 14 15 12 6 7 9 8 5 7 7 6 7 8 9
1 4 5 5 6 7 7 8 8 9 9 9 8 8 9 9 9 11 11 11 11 11 11 10 12 12 5 4 22 10 6 7 7 8 8 8 10 10
5 4 5 5 6 6 7 8 9 8 9 7 6 8 7 8 9 9 9 10 11 10 10 10 11 8 11 10 7 30 10 8 8 11 10 11 12 13
5 5 5 5 6 6 6 6 7 7 7 7 7 7 7 8 9 9 9 10 10 10 9 10 10 10 8 8 7 9 28 12 9 7 7 7 8 15
3 4 4 4 4 4 4 5 6 6 6 5 6 6 7 8 7 8 8 9 9 8 10 9 9 10 7 5 7 9 9 24 20 11 6 7 9 10
3 3 4 4 4 4 5 5 6 7 7 7 6 6 7 7 7 6 6 8 7 6 5 4 6 7 8 8 9 10 10 9 13 22 25 17 4 5
3 3 3 3 4 4 5 6 6 6 7 7 7 7 5 7 6 5 6 5 6 5 7 5 4 6 6 6 7 7 10 10 8 10 10 15 14 11
Wind_Direction
224 227 236 238 247 241 244 253 255 267 263 258 254 232 221 233 229 230 236 238 230 231 231 230 232 234 235 238 243 243 242 242 244 243 242 242 242 243
232 223 227 235 242 244 244 243 247 257 271 264 270 279 278 262 249 231 238 233 227 231 233 237 235 237 239 239 240 241 242 240 239 240 240 239 239 239
255 242 236 236 242 249 250 249 247 247 255 270 265 270 263 268 267 264 252 246 248 231 230 229 228 235 241 246 246 246 245 246 244 242 241 240 240 240
248 249 251 251 255 256 254 252 248 249 249 255 263 269 275 273 265 262 269 264 260 257 230 229 228 227 233 238 241 243 242 241 242 243 243 243 242 240
238 241 254 256 257 259 260 253 256 258 262 266 265 274 274 282 281 280 273 276 269 261 256 239 231 233 233 235 235 237 240 239 239 239 238 238 240 241
240 243 253 254 257 263 266 266 262 264 262 267 263 263 265 264 269 276 270 266 271 270 262 253 257 235 229 232 235 238 242 240 241 241 239 238 237 238
235 235 231 239 244 250 264 271 268 261 257 258 265 273 270 273 265 271 271 269 266 271 272 270 269 260 246 232 238 235 238 239 241 242 241 241 239 236
299 251 259 252 253 253 255 250 253 268 278 278 269 262 266 268 267 270 272 276 278 245 258 259 259 265 266 258 235 220 221 228 232 236 240 241 241 240
264 266 260 324 35 350 328 306 266 254 247 269 279 284 294 297 296 293 280 271 271 273 270 272 264 269 268 266 257 248 225 222 225 229 233 234 235 236
322 44 50 41 24 350 322 312 314 323 0 4 341 329 324 317 302 294 294 293 291 289 288 281 278 268 266 265 250 245 244 234 231 231 233 233 233 233
68 48 37 34 10 347 345 339 332 329 344 323 309 294 292 291 281 308 316 309 303 302 300 270 282 278 270 271 269 249 242 241 236 235 232 234 234 237
115 96 56 27 4 1 353 355 341 347 330 335 337 345 337 356 353 345 339 324 321 307 351 336 315 319 310 309 287 285 283 258 245 245 241 238 235 237
62 52 50 12 13 8 7 13 340 312 327 344 343 342 343 342 339 339 328 322 313 296 315 326 311 306 297 308 292 293 289 288 284 277 245 240 237 224
51 46 66 326 299 296 20 319 300 300 5 358 356 354 346 338 337 333 328 325 311 305 314 305 293 303 300 298 297 304 308 297 297 289 278 267 233 239
61 72 290 280 303 199 76 318 7 18 12 7 357 350 337 338 330 325 327 325 320 319 319 316 314 314 306 295 298 303 321 304 294 300 314 298 302 318
142 108 13 274 101 31 18 23 20 17 10 5 357 344 346 345 335 336 328 332 325 330 331 321 318 323 312 300 306 309 328 304 329 316 314 15 359 340
319 31 26 23 22 26 27 23 21 8 12 0 0 356 353 348 346 340 337 332 333 329 331 337 337 323 310 17 340 321 323 339 337 347 47 49 33 22
321 40 32 26 18 22 18 13 10 8 4 360 352 354 350 345 338 346 345 342 341 340 339 347 342 340 347 92 36 341 356 357 359 19 31 58 54 36
55 45 40 24 22 24 14 7 3 352 347 351 344 353 348 342 342 344 346 342 345 344 351 354 347 346 9 17 19 24 8 15 21 39 42 52 59 43
38 37 25 18 18 15 9 358 346 336 348 347 345 345 346 336 347 350 350 351 349 349 357 7 5 357 3 14 6 30 30 25 10 29 38 52 59 49
27 24 17 10 8 1 348 335 330 332 336 343 343 340 338 338 338 345 346 349 353 360 8 7 5 359 15 14 26 25 27 36 41 31 353 43 49 44
4 354 353 343 350 328 326 330 325 334 339 338 345 332 336 334 339 332 334 341 351 354 0 1 1 17 26 28 33 27 26 21 31 42 45 47 1 68
311 308 313 296 296 306 316 317 321 326 327 328 328 327 324 317 329 324 331 324 330 330 344 356 5 14 25 39 40 32 31 31 22 28 38 33 58 77